Location: Unspecified
(0.0000°N, 0.0000°E)
Time: 15:43:03
(UTC+00:00)

CZ-3C DEB - Pass Details

Date: 23 February 2026
Orbit: 380 x 28980 km, 20.3° (Epoch: 21 March)

Event Time Altitude Azimuth Distance (km) Brightness Sun altitude
Exits shadow 04:10:19 36° 177° (S) 1,288 ? -30.3°
Drops below altitude 10° 04:12:41 10° 139° (SE) 1,884 ? -29.7°
Sets 04:14:06 0° 130° (SE) 2,501 ? -29.3°
